Monument Pass, CO

2:31 AM MST on February 23, 2018 (GMT -0700)
Monument Pass

Weather History for KMNH - November, 2013

Change the Weather History Date:

Thursday, November 7, 2013

  Actual Average Record
Temperature  
Mean Temperature 39 °F -  
Max Temperature 55 °F - 71 °F (2006)
Min Temperature 23 °F - 17 °F (2003)
Degree Days  
Heating Degree Days 26    
Month to date heating degree days  
Cooling Degree Days 0    
Month to date cooling degree days  
Moisture  
Dew Point 14 °F    
Average Humidity 40    
Maximum Humidity 63    
Minimum Humidity 21    
Precipitation  
Precipitation 0.00 in - 0.03 in (2001)
Snow  
Snow 0.00 in - - ()
Snow Depth -    
Sea Level Pressure  
Sea Level Pressure 30.29 in    
Wind  
Wind Speed 10 mph (South)    
Max Wind Speed 17 mph    
Max Gust Speed -    
Visibility 10 miles    
Events      
T = Trace of Precipitation, MM = Missing Value Source: NWS Daily Summary

Daily Weather History Graph

Daily Weather History Graph

Search for Another Location

Airport or City:

Trip Planner

Search our weather history database for the weather conditions in past years. The results will help you decide how hot, cold, wet, or windy it might be!

Date:

Astronomy

Nov. 07, 2013 Rise Set
Actual Time 6:33 AM MST 4:50 PM MST
Civil Twilight 6:05 AM MST 5:18 PM MST
Nautical Twilight 5:33 AM MST 5:50 PM MST
Astronomical Twilight 5:01 AM MST 6:22 PM MST
Moon 10:43 AM MST (11/7) 9:05 PM MST (11/7)
Length of Visible Light 11h 13m
Length of Day
10h 17m
Waxing Crescent, 23% of the Moon is Illuminated
Nov 7
Waxing Crescent
Nov 9
First Quarter
Nov 17
Full
Nov 25
Last Quarter
Dec 2
New

Hourly Weather History & Observations

Time (MST) Temp. Windchill Dew Point Humidity Pressure Visibility Wind Dir Wind Speed Gust Speed Precip Events Conditions
12:12 AM 24.8 °F 15.3 °F 12.2 °F 59% 30.36 in 10.0 mi South 9.2 mph - N/A   Clear
12:32 AM 26.6 °F 17.5 °F 14.0 °F 59% 30.37 in 10.0 mi SSW 9.2 mph - N/A   Clear
12:51 AM 28.4 °F 19.7 °F 14.0 °F 55% 30.37 in 10.0 mi SSW 9.2 mph - N/A   Clear
1:12 AM 26.6 °F 16.8 °F 14.0 °F 59% 30.36 in 10.0 mi South 10.4 mph - N/A   Clear
1:32 AM 26.6 °F 17.5 °F 14.0 °F 59% 30.36 in 10.0 mi South 9.2 mph - N/A   Clear
1:52 AM 26.6 °F 16.8 °F 12.2 °F 55% 30.37 in 10.0 mi South 10.4 mph - N/A   Clear
2:12 AM 26.6 °F 17.5 °F 12.2 °F 55% 30.37 in 10.0 mi South 9.2 mph - N/A   Clear
2:32 AM 28.4 °F 21.2 °F 12.2 °F 51% 30.37 in 10.0 mi SSW 6.9 mph - N/A   Clear
2:52 AM 24.8 °F 15.3 °F 12.2 °F 59% 30.37 in 10.0 mi South 9.2 mph - N/A   Clear
3:12 AM 28.4 °F 18.5 °F 14.0 °F 55% 30.37 in 10.0 mi SSW 11.5 mph - N/A   Clear
3:32 AM 26.6 °F 17.5 °F 12.2 °F 55% 30.37 in 10.0 mi South 9.2 mph - N/A   Clear
3:52 AM 26.6 °F 17.5 °F 12.2 °F 55% 30.37 in 10.0 mi South 9.2 mph - N/A   Clear
4:12 AM 26.6 °F 16.8 °F 12.2 °F 55% 30.37 in 10.0 mi SSW 10.4 mph - N/A   Clear
4:32 AM 26.6 °F 17.5 °F 12.2 °F 55% 30.38 in 10.0 mi SE 9.2 mph - N/A   Clear
4:52 AM 24.8 °F 14.6 °F 12.2 °F 59% 30.38 in 10.0 mi South 10.4 mph - N/A   Clear
5:12 AM 24.8 °F 14.6 °F 12.2 °F 59% 30.37 in 10.0 mi South 10.4 mph - N/A   Clear
5:32 AM 23.0 °F 13.1 °F 12.2 °F 63% 30.38 in 10.0 mi SSE 9.2 mph - N/A   Clear
5:52 AM 23.0 °F 13.9 °F 12.2 °F 63% 30.38 in 10.0 mi South 8.1 mph - N/A   Clear
6:12 AM 24.8 °F 14.0 °F 12.2 °F 59% 30.38 in 10.0 mi South 11.5 mph - N/A   Clear
6:32 AM 26.6 °F 15.2 °F 12.2 °F 55% 30.37 in 10.0 mi South 13.8 mph - N/A   Clear
6:51 AM 28.4 °F 18.5 °F 14.0 °F 55% 30.37 in 10.0 mi South 11.5 mph - N/A   Clear
7:11 AM 32.0 °F 24.2 °F 14.0 °F 48% 30.39 in 10.0 mi South 9.2 mph - N/A   Clear
7:32 AM 32.0 °F 23.6 °F 14.0 °F 48% 30.39 in 10.0 mi South 10.4 mph - N/A   Clear
7:52 AM 35.6 °F 27.5 °F 14.0 °F 41% 30.39 in 10.0 mi South 11.5 mph - N/A   Clear
8:12 AM 37.4 °F 28.9 °F 12.2 °F 36% 30.38 in 10.0 mi South 13.8 mph - N/A   Clear
8:32 AM 41.0 °F 34.7 °F 12.2 °F 31% 30.39 in 10.0 mi South 10.4 mph - N/A   Clear
8:52 AM 42.8 °F 37.5 °F 14.0 °F 31% 30.38 in 10.0 mi South 9.2 mph - N/A   Clear
9:12 AM 44.6 °F 40.7 °F 14.0 °F 29% 30.38 in 10.0 mi South 6.9 mph - N/A   Clear
9:32 AM 46.4 °F 42.9 °F 14.0 °F 27% 30.37 in 10.0 mi SSE 6.9 mph - N/A   Clear
9:52 AM 50.0 °F - 14.0 °F 24% 30.37 in 10.0 mi South 5.8 mph - N/A   Clear
10:12 AM 50.0 °F - 14.0 °F 24% 30.37 in 10.0 mi SE 8.1 mph - N/A   Clear
10:32 AM 51.8 °F - 15.8 °F 24% 30.36 in 10.0 mi SE 5.8 mph - N/A   Clear
10:52 AM 51.8 °F - 15.8 °F 24% 30.35 in 10.0 mi SE 11.5 mph - N/A   Clear
11:11 AM 53.6 °F - 15.8 °F 22% 30.34 in 10.0 mi SSE 11.5 mph - N/A   Clear
11:32 AM 53.6 °F - 15.8 °F 22% 30.33 in 10.0 mi SE 12.7 mph - N/A   Clear
11:52 AM 53.6 °F - 15.8 °F 22% 30.32 in 10.0 mi SSE 13.8 mph - N/A   Clear
12:12 PM 53.6 °F - 14.0 °F 21% 30.31 in 10.0 mi SSE 13.8 mph - N/A   Clear
12:32 PM 53.6 °F - 14.0 °F 21% 30.30 in 10.0 mi SSE 12.7 mph - N/A   Clear
12:52 PM 53.6 °F - 14.0 °F 21% 30.29 in 10.0 mi SE 12.7 mph - N/A   Clear
1:12 PM 55.4 °F - 15.8 °F 21% 30.28 in 10.0 mi SSE 11.5 mph - N/A   Clear
1:32 PM 55.4 °F - 15.8 °F 21% 30.27 in 10.0 mi South 10.4 mph - N/A   Clear
1:52 PM 53.6 °F - 15.8 °F 22% 30.26 in 10.0 mi SSE 12.7 mph - N/A   Clear
2:12 PM 53.6 °F - 17.6 °F 24% 30.25 in 10.0 mi SSE 15.0 mph - N/A   Clear
2:31 PM 53.6 °F - 17.6 °F 24% 30.25 in 10.0 mi SSE 13.8 mph - N/A   Clear
2:52 PM 53.6 °F - 17.6 °F 24% 30.24 in 10.0 mi South 13.8 mph - N/A   Clear
3:12 PM 53.6 °F - 17.6 °F 24% 30.24 in 10.0 mi South 15.0 mph - N/A   Clear
3:32 PM 51.8 °F - 17.6 °F 26% 30.24 in 10.0 mi SSW 11.5 mph - N/A   Clear
3:52 PM 50.0 °F - 17.6 °F 28% 30.24 in 10.0 mi South 12.7 mph - N/A   Clear
4:12 PM 46.4 °F 41.5 °F 17.6 °F 32% 30.24 in 10.0 mi South 10.4 mph - N/A   Clear
4:32 PM 44.6 °F 39.2 °F 15.8 °F 31% 30.24 in 10.0 mi South 10.4 mph - N/A   Clear
4:52 PM 41.0 °F 35.2 °F 15.8 °F 36% 30.23 in 10.0 mi SSW 9.2 mph - N/A   Clear
5:12 PM 35.6 °F 29.2 °F 14.0 °F 41% 30.23 in 10.0 mi SSW 8.1 mph - N/A   Clear
5:32 PM 35.6 °F 28.6 °F 14.0 °F 41% 30.23 in 10.0 mi SW 9.2 mph - N/A   Clear
5:52 PM 37.4 °F 32.8 °F 14.0 °F 38% 30.23 in 10.0 mi SSW 5.8 mph - N/A   Clear
6:12 PM 33.8 °F 25.8 °F 15.8 °F 48% 30.22 in 10.0 mi SSW 10.4 mph - N/A   Clear
6:32 PM 35.6 °F 28.0 °F 14.0 °F 41% 30.21 in 10.0 mi South 10.4 mph - N/A   Clear
6:52 PM 35.6 °F 27.5 °F 14.0 °F 41% 30.20 in 10.0 mi South 11.5 mph - N/A   Clear
7:12 PM 35.6 °F 26.2 °F 14.0 °F 41% 30.19 in 10.0 mi South 15.0 mph - N/A   Clear
7:32 PM 35.6 °F 26.2 °F 14.0 °F 41% 30.18 in 10.0 mi South 15.0 mph - N/A   Clear
7:52 PM 37.4 °F 27.8 °F 14.0 °F 38% 30.17 in 10.0 mi SSW 17.3 mph - N/A   Clear
8:12 PM 37.4 °F 29.8 °F 14.0 °F 38% 30.16 in 10.0 mi SSW 11.5 mph - N/A   Clear
8:32 PM 37.4 °F 27.8 °F 14.0 °F 38% 30.15 in 10.0 mi SSW 17.3 mph - N/A   Clear
8:51 PM 37.4 °F 27.8 °F 14.0 °F 38% 30.14 in 10.0 mi SSW 17.3 mph - N/A   Clear
9:12 PM 37.4 °F 29.3 °F 14.0 °F 38% 30.14 in 10.0 mi SSW 12.7 mph - N/A   Clear
9:31 PM 37.4 °F 29.3 °F 14.0 °F 38% 30.13 in 10.0 mi SSW 12.7 mph - N/A   Clear
9:52 PM 37.4 °F 30.8 °F 14.0 °F 38% 30.13 in 10.0 mi SSW 9.2 mph - N/A   Clear
10:12 PM 37.4 °F 32.1 °F 14.0 °F 38% 30.13 in 10.0 mi SSW 6.9 mph - N/A   Clear
10:32 PM 37.4 °F 31.4 °F 14.0 °F 38% 30.12 in 10.0 mi SSW 8.1 mph - N/A   Clear
10:52 PM 33.8 °F 27.7 °F 14.0 °F 44% 30.12 in 10.0 mi SSW 6.9 mph - N/A   Clear
11:12 PM 32.0 °F 25.6 °F 14.0 °F 48% 30.11 in 10.0 mi South 6.9 mph - N/A   Clear
11:31 PM 33.8 °F 27.0 °F 14.0 °F 44% 30.10 in 10.0 mi SSW 8.1 mph - N/A   Clear
11:52 PM 35.6 °F 28.0 °F 14.0 °F 41% 30.09 in 10.0 mi SSW 10.4 mph - N/A   Clear